Regional Weather Roundup
Issued by NWS

Home | Current Version | Previous Version | Graphics & Text | Print | Product List | Glossary On
Versions: 1 2 3 4 5 6 7 8 9 10 11 12 13 14 15 16 17 18 19 20 21 22 23 24 25 26 27 28 29 30 31 32 33 34 35 36 37 38 39 40 41 42 43 44 45 46 47 48 49 50
000
ASUS45 KSLC 281910
RWRUT

UTAH REGIONAL WEATHER ROUNDUP
NATIONAL WEATHER SERVICE SALT LAKE CITY UT
1200 PM MST FRI NOV 28 2014

UTZ001>011-023>025-282000-

NORTHERN UTAH

CITY           SKY/WX    TMP DP  RH WIND       PRES   REMARKS
BRIGHAM CITY   CLOUDY    54  23  30 CALM      29.96F
HILL AFB       CLOUDY    56  19  23 S10       29.97F
LOGAN          SUNNY     52  30  43 N10       29.93F
OGDEN          PTSUNNY   56  23  27 S9        29.96F
PROVO AIRPORT  NOT AVBL
SALT LAKE CITY CLOUDY    63  13  14 S16G23    29.94F
VERNAL         PTSUNNY   45  24  43 VRB5      30.08F
WENDOVER       MOSUNNY   46  25  42 NE6       29.96F
HEBER CITY     PTSUNNY   54  23  30 CALM      30.02F
WEST JORDAN    SUNNY     59  27  29 S24G30    29.97F

$$

UTZ012>022-026-027-282000-

SOUTHERN/CENTRAL UTAH

CITY           SKY/WX    TMP DP  RH WIND       PRES   REMARKS
BLANDING       SUNNY     49  22  34 CALM      30.28F
BRYCE CANYON   SUNNY     50  14  23 SE10      30.20F
CEDAR CITY     SUNNY     63  13  14 SW12G18   30.10F
DELTA          PTSUNNY   58  17  20 S10       30.03F
MILFORD        SUNNY     60  15  17 SW23      30.06F
MOAB/CYNLANDS  SUNNY     46  24  42 N7        30.14F
PRICE          MOSUNNY   47  24  40 SE7       30.15F
ST GEORGE      MOCLDY    50  19  29 CALM      30.13F
KANAB          SUNNY     57  14  18 SW6       30.18F

$$

REGIONAL REPORTS     COLORADO/ARIZONA

CITY           SKY/WX    TMP DP  RH WIND       PRES   REMARKS
CRAIG, CO      PTSUNNY   48  26  42 NE7       30.07F
GRAND JUNCTION MOSUNNY   44  27  51 NW5       30.14F
RIFLE          MOSUNNY   43  25  49 CALM      30.14F
MONTROSE       MOSUNNY   53  21  28 CALM      30.15F
CORTEZ         SUNNY     55  20  25 CALM      30.20F
PAGE, AZ       SUNNY     49  18  29 VRB3      30.16F
GRAND CANYON   SUNNY     61   8  12 SW10      30.23F
KINGMAN        SUNNY     71  15  11 CALM      30.10F
FLAGSTAFF      SUNNY     62  10  13 S13       30.24F

$$

REGIONAL REPORTS    NEVADA/IDAHO/WYOMING

CITY           SKY/WX    TMP DP  RH WIND       PRES   REMARKS
LAS VEGAS, NV  MOSUNNY   60  21  22 S3        30.02F
ELY            MOSUNNY   57  10  15 SW8       30.08F
ELKO           SUNNY     53  26  35 CALM      29.97F
POCATELLO, ID  SUNNY     60  20  21 S16       29.87F
BURLEY         CLOUDY    56  21  25 S17       29.85F
EVANSTON, WY   PTSUNNY   49  19  30 SW20G25   30.01F
ROCK SPRINGS   PTSUNNY   50  17  27 SW6       30.00F

$$


USA.gov is the U.S. government's official web portal to all federal, state and local government web resources and services.